This is the latest recevied weather packets stored in our database for station/object DJ2DS-13. If no packets are shown the sender has not sent any weather packets the latest 10 day(s).
| Time | Temp. | Humidity | Pressure | Rain* | Wind** | Luminosity | Snow |
|---|---|---|---|---|---|---|---|
| 1777808194 | 21.67° C | 67% | 1008.4 hPa | 0 mm | - | 327 W/m² | - |
| 1777807893 | 21.67° C | 66% | 1008.4 hPa | 0 mm | - | 308 W/m² | - |
| 1777807593 | 21.67° C | 68% | 1008.5 hPa | 0 mm | - | 271 W/m² | - |
| 1777807293 | 21.67° C | 65% | 1008.4 hPa | 0 mm | - | 295 W/m² | - |
| 1777806994 | 21.67° C | 67% | 1008.5 hPa | 0 mm | - | 346 W/m² | - |
| 1777806692 | 21.67° C | 65% | 1008.6 hPa | 0 mm | - | 401 W/m² | - |
| 1777806394 | 21.67° C | 65% | 1008.5 hPa | 0 mm | - | 334 W/m² | - |
| 1777806093 | 21.67° C | 66% | 1008.6 hPa | 0 mm | - | 561 W/m² | - |
| 1777805790 | 21.67° C | 67% | 1008.6 hPa | 0 mm | - | 404 W/m² | - |
| 1777805490 | 21.67° C | 66% | 1008.6 hPa | 0 mm | - | 399 W/m² | - |
| 1777805190 | 21.67° C | 67% | 1008.7 hPa | 0 mm | - | 531 W/m² | - |
| 1777804890 | 21.67° C | 68% | 1008.7 hPa | 0 mm | - | 610 W/m² | - |
| 1777804589 | 21.67° C | 69% | 1008.8 hPa | 0 mm | - | 533 W/m² | - |
| 1777804289 | 21.11° C | 70% | 1008.7 hPa | 0 mm | - | 666 W/m² | - |
| 1777803989 | 21.11° C | 71% | 1008.8 hPa | 0 mm | - | 587 W/m² | - |
| 1777803690 | 21.11° C | 72% | 1008.8 hPa | 0 mm | - | 571 W/m² | - |
| 1777803390 | 20.56° C | 72% | 1008.9 hPa | 0 mm | - | 568 W/m² | - |
| 1777803088 | 20.56° C | 73% | 1009 hPa | 0 mm | - | 457 W/m² | - |
| 1777802789 | 20.56° C | 75% | 1009 hPa | 0 mm | - | 570 W/m² | - |
| 1777802486 | 20° C | 76% | 1009 hPa | 0 mm | - | 535 W/m² | - |
| 1777802187 | 20° C | 77% | 1008.9 hPa | 0 mm | - | 489 W/m² | - |
| 1777801885 | 19.44° C | 76% | 1009.1 hPa | 0 mm | - | 545 W/m² | - |
| 1777801585 | 19.44° C | 76% | 1009.1 hPa | 0 mm | - | 387 W/m² | - |
| 1777801287 | 19.44° C | 76% | 1009.1 hPa | 0 mm | - | 382 W/m² | - |
| 1777800984 | 19.44° C | 77% | 1009.1 hPa | 0 mm | - | 118 W/m² | - |
* Rain latest hour (hover to see other rain measurements)
** Current wind speed in m/s (hover to see current wind gust speed)